Weather observations for the past three days for
Southwest Washington Regional Airport
Imperial (Metric)
Date Time (pdt) Wind (mph) Vis. (mi.) Weather Sky Cond. Temperature (ºF) Relative Humidity Wind Chill (°F) Heat Index (°F) Pressure Precipitation (in)
Air Dwpt 6 hour altimeter (in) sea level (mb) 1 hr 3 hr 6 hr
Max. Min.
16 07:56 NW 6 10.00 Mostly Cloudy BKN006 62.1 57 84% 30.02 1016.8
16 06:56 NW 5 4.00 Fog/Mist OVC002 57.9 55.9 93% 30.02 1016.9
16 05:56 NW 6 7.00 Overcast OVC004 57.9 57 97% 30.02 1017.0
16 04:56 NW 6 10.00 Overcast OVC004 57.9 57 64 57.9 97% 30.02 1016.9
16 03:56 NW 5 10.00 Overcast OVC004 59 57 93% 30.02 1016.8
16 02:56 NW 8 10.00 Fair CLR 59 55.9 90% 30.01 1016.7
16 01:56 NW 6 10.00 Fair CLR 61 57 87% 30.02 1016.8
16 00:56 N 3 10.00 Fair CLR 62.1 57 84% 30.03 1017.1
15 23:56 Calm 10.00 Fair CLR 63 57.9 84% 30.03 1017.2
15 22:56 W 6 10.00 Fair CLR 64 57.9 81 64 81% 30.03 1017.2
15 21:56 NW 5 10.00 Fair CLR 66.9 59 76% 30.03 1017.3
15 20:56 NW 6 10.00 Fair CLR 71.1 60.1 68% 30.02 1017.0
15 19:56 NW 9 10.00 Fair CLR 75 61 62% 77 30.01 1016.7
15 18:56 W 10 10.00 Fair CLR 79 62.1 56% 80 30.01 1016.7
15 17:56 NW 8 10.00 Fair CLR 81 62.1 53% 82 30.03 1017.1
15 16:56 Vrbl 6 10.00 Fair CLR 80.1 61 81 63 52% 81 30.04 1017.7
15 15:56 NW 5 10.00 Fair CLR 78.1 60.1 54% 79 30.07 1018.6
15 14:56 Vrbl 3 10.00 Fair CLR 75.9 57.9 54% 78 30.1 1019.5
15 13:56 NW 6 10.00 Fair CLR 73 57.9 59% 30.12 1020.2
15 12:56 Vrbl 7 10.00 Fair CLR 70 55.9 61% 30.13 1020.7
15 11:56 W 5 10.00 Overcast OVC021 68 55 63% 30.15 1021.4
15 10:56 Vrbl 3 10.00 Overcast OVC019 63 53.1 63 57.9 70% 30.16 1021.8
15 09:56 N 6 10.00 Overcast OVC017 61 53.1 75% 30.16 1021.8
15 08:56 N 6 10.00 Overcast OVC015 60.1 53.1 78% 30.16 1021.8
15 07:56 N 3 10.00 Overcast OVC015 60.1 53.1 78% 30.16 1021.7
15 06:56 N 3 10.00 Overcast OVC015 59 53.1 81% 30.15 1021.4
15 05:56 Vrbl 3 10.00 Overcast OVC015 59 53.1 81% 30.14 1021.2
15 04:56 N 8 10.00 Overcast OVC015 59 53.1 62.1 59 81% 30.14 1020.8
15 03:56 N 7 10.00 Overcast OVC013 59 53.1 81% 30.13 1020.7
15 02:56 NW 9 10.00 Overcast OVC013 59 53.1 81% 30.12 1020.4
15 01:56 NW 8 10.00 Overcast OVC015 60.1 54 80% 30.12 1020.5
15 00:56 NW 6 10.00 Overcast OVC015 60.1 54 80% 30.13 1020.6
14 23:56 NW 8 10.00 Overcast OVC015 61 55 81% 30.13 1020.5
14 22:56 NW 9 10.00 Overcast OVC015 61 55.9 79 61 84% 30.12 1020.2
14 21:56 Vrbl 6 10.00 Partly Cloudy SCT015 62.1 55.9 80% 30.11 1019.8
14 20:56 W 9 10.00 Fair CLR 64.9 57 76% 30.08 1019.0
14 19:56 NW 9 10.00 Fair CLR 70 57 64% 30.06 1018.2
14 18:56 NW 10 10.00 Fair CLR 73.9 57.9 57% 30.06 1018.1
14 17:56 W 9 10.00 Fair CLR 77 60.1 56% 79 30.05 1017.9
14 16:56 W 12 10.00 Fair CLR 79 60.1 81 69.1 52% 80 30.05 1018.0
14 15:56 W 8 G 16 10.00 Fair CLR 79 60.1 52% 80 30.06 1018.1
14 14:56 NW 13 G 17 10.00 Fair CLR 80.1 60.1 51% 81 30.07 1018.5
14 13:56 NW 8 10.00 Fair CLR 78.1 59 52% 79 30.07 1018.5
14 12:56 W 9 10.00 Fair CLR 75 57.9 55% 78 30.07 1018.8
14 11:56 NW 8 10.00 Fair CLR 73 57.9 59% 30.08 1018.8
14 10:56 W 6 10.00 Fair CLR 70 57.9 70 59 66% 30.08 1019.0
14 09:56 W 5 10.00 Overcast OVC014 64 57 78% 30.08 1019.1
14 08:56 NW 5 10.00 Overcast OVC010 61 55.9 84% 30.09 1019.2
14 07:56 Calm 10.00 Overcast OVC010 60.1 55.9 86% 30.08 1018.9
14 06:56 W 7 10.00 Overcast OVC010 60.1 55.9 86% 30.07 1018.6
14 05:56 W 5 10.00 Overcast OVC010 60.1 55.9 86% 30.06 1018.2
14 04:56 NW 7 10.00 Overcast OVC010 60.1 55.9 66.9 60.1 86% 30.04 1017.5
14 03:56 NW 6 10.00 Overcast OVC010 61 57 87% 30.02 1017.0
14 02:56 N 7 10.00 A Few Clouds FEW012 61 57 87% 30.01 1016.6
14 01:56 NW 7 10.00 Fair CLR 62.1 57 84% 30.01 1016.6
14 00:56 N 3 10.00 Fair CLR 64 57 78% 30.01 1016.5
13 23:56 NW 6 10.00 Fair CLR 64.9 57 76% 30 1016.2
13 22:56 NW 9 10.00 Fair CLR 66.9 57 89.1 66.9 71% 29.99 1016.0
13 21:56 NW 6 10.00 Fair CLR 70 59 68% 29.98 1015.7
13 20:56 NW 6 10.00 Fair CLR 73 60.1 64% 29.96 1015.0
13 19:56 NW 6 10.00 Fair CLR 79 61 54% 80 29.95 1014.7
13 18:56 NW 10 G 17 10.00 Fair CLR 82.9 63 51% 84 29.94 1014.2
13 15:56 W 12 10.00 Fair CLR 89.1 62.1 41% 89 29.95 1014.5
13 14:56 W 12 10.00 Fair CLR 87.1 62.1 43% 88 29.96 1014.7
13 13:56 W 9 10.00 Fair CLR 84.9 62.1 46% 85 29.97 1015.3
13 12:56 NW 9 10.00 Fair CLR 80.1 61 52% 81 29.99 1015.8
13 11:56 NW 8 10.00 Fair CLR 75.9 60.1 58% 78 30 1016.2
13 10:56 W 6 10.00 Fair CLR 71.1 57.9 71.1 57.9 63% 30.02 1016.9
13 09:56 NW 6 10.00 Fair CLR 66 55.9 70% 30.03 1017.3
13 08:56 NW 6 10.00 Overcast OVC011 63 55.9 78% 30.04 1017.7
Date Time (pdt) Wind (mph) Vis. (mi.) Weather Sky Cond. Air Dwpt Max. Min. Relative Humidity Wind Chill (°F) Heat Index (°F) altimeter (in) sea level (mb) 1 hr 3 hr 6 hr
6 hour
Temperature (ºF) Pressure Precipitation (in)